BEL2PN EBBR-EDDM

Flight info

Callsign BEL2PN
Flight time 1h 2m
Altitude 31000
Route SOPOK Y863 ROPUV L607 EMGOD DCT MOVUM T109 HAREM T104 ROKIL ROKIL1B
Aircraft A320/M-DE3FGHIJ1LORVWY/H

Departure

Time 2026-05-05 16:34
Airport Brussels Airport (EBBR)

Arrival

Time 2026-05-05 17:37
Airport Munich Airport (EDDM)
Time Latitude Longitude Altitude Speed Heading
2026-05-05 16:07 50.90278 4.48575 117 ft 0 kts 335°
2026-05-05 16:26 50.90242 4.48600 120 ft 4 kts 337°
2026-05-05 16:26 50.90196 4.48610 120 ft 3 kts 59°
2026-05-05 16:27 50.90195 4.48606 120 ft 0 kts 65°
2026-05-05 16:28 50.90196 4.48609 120 ft 2 kts 65°
2026-05-05 16:29 50.90214 4.48673 123 ft 11 kts 65°
2026-05-05 16:29 50.90255 4.48816 122 ft 16 kts 66°
2026-05-05 16:29 50.90304 4.48986 123 ft 17 kts 65°
2026-05-05 16:29 50.90356 4.49164 124 ft 18 kts 65°
2026-05-05 16:30 50.90409 4.49349 124 ft 19 kts 65°
2026-05-05 16:30 50.90378 4.49444 122 ft 8 kts 202°
2026-05-05 16:30 50.90296 4.49411 122 ft 16 kts 193°
2026-05-05 16:30 50.90171 4.49359 129 ft 21 kts 195°
2026-05-05 16:31 50.90026 4.49334 130 ft 20 kts 155°
2026-05-05 16:31 50.89934 4.49367 135 ft 6 kts 194°
2026-05-05 16:31 50.89894 4.49352 137 ft 8 kts 192°
2026-05-05 16:31 50.89812 4.49326 142 ft 15 kts 191°
2026-05-05 16:32 50.89692 4.49281 149 ft 21 kts 194°
2026-05-05 16:32 50.89569 4.49194 157 ft 17 kts 206°
2026-05-05 16:32 50.89476 4.49153 161 ft 11 kts 194°
2026-05-05 16:32 50.89413 4.49127 164 ft 8 kts 194°
2026-05-05 16:33 50.89343 4.49098 166 ft 15 kts 194°
2026-05-05 16:33 50.89212 4.49042 174 ft 19 kts 194°
2026-05-05 16:33 50.89137 4.49036 177 ft 5 kts 118°
2026-05-05 16:33 50.89142 4.49071 176 ft 0 kts 72°
2026-05-05 16:34 50.89175 4.49216 176 ft 47 kts 70°
2026-05-05 16:34 50.89369 4.50050 177 ft 111 kts 70°
2026-05-05 16:34 50.89683 4.51388 424 ft 131 kts 66°
2026-05-05 16:34 50.90005 4.52680 1060 ft 124 kts 63°
2026-05-05 16:35 50.90392 4.53916 1537 ft 126 kts 60°
2026-05-05 16:35 50.90795 4.55165 2006 ft 128 kts 60°
2026-05-05 16:35 50.91205 4.56436 2416 ft 131 kts 59°
2026-05-05 16:35 50.91622 4.57727 2822 ft 133 kts 59°
2026-05-05 16:36 50.92046 4.59037 3221 ft 134 kts 59°
2026-05-05 16:36 50.92487 4.60395 3516 ft 149 kts 59°
2026-05-05 16:36 50.93005 4.61983 3665 ft 179 kts 60°
2026-05-05 16:36 50.93611 4.63866 3942 ft 205 kts 63°
2026-05-05 16:37 50.94090 4.66140 4345 ft 230 kts 71°
2026-05-05 16:37 50.94580 4.68688 4800 ft 252 kts 72°
2026-05-05 16:37 50.95097 4.71397 5577 ft 259 kts 72°
2026-05-05 16:37 50.95487 4.74222 6417 ft 266 kts 86°
2026-05-05 16:38 50.95254 4.77157 7229 ft 273 kts 107°
2026-05-05 16:38 50.94346 4.79826 8067 ft 279 kts 129°
2026-05-05 16:38 50.92907 4.81929 8962 ft 284 kts 139°
2026-05-05 16:38 50.91373 4.83929 9861 ft 287 kts 139°
2026-05-05 16:39 50.89753 4.85899 10330 ft 305 kts 146°
2026-05-05 16:39 50.87784 4.87473 10576 ft 329 kts 159°
2026-05-05 16:39 50.85528 4.88374 11146 ft 339 kts 171°
2026-05-05 16:39 50.83162 4.88748 11874 ft 344 kts 173°
2026-05-05 16:40 50.80770 4.89113 12631 ft 347 kts 173°
2026-05-05 16:40 50.78356 4.89491 13392 ft 350 kts 173°
2026-05-05 16:40 50.75927 4.89876 14126 ft 352 kts 174°
2026-05-05 16:40 50.73475 4.90260 14864 ft 355 kts 174°
2026-05-05 16:41 50.71037 4.90760 15673 ft 355 kts 167°
2026-05-05 16:41 50.68717 4.92126 16382 ft 359 kts 152°
2026-05-05 16:41 50.66702 4.94459 17038 ft 364 kts 136°
2026-05-05 16:41 50.65146 4.97626 17669 ft 369 kts 121°
2026-05-05 16:42 50.64160 5.01387 18262 ft 375 kts 110°
2026-05-05 16:42 50.63365 5.05313 18807 ft 378 kts 110°
2026-05-05 16:42 50.62560 5.09272 19352 ft 381 kts 110°
2026-05-05 16:42 50.61743 5.13256 19883 ft 384 kts 110°
2026-05-05 16:43 50.60913 5.17273 20408 ft 387 kts 110°
2026-05-05 16:43 50.60075 5.21311 20945 ft 390 kts 110°
2026-05-05 16:43 50.59237 5.25335 21484 ft 393 kts 111°
2026-05-05 16:43 50.58091 5.29216 21998 ft 391 kts 128°
2026-05-05 16:44 50.56200 5.32265 22509 ft 390 kts 140°
2026-05-05 16:44 50.54164 5.35105 23030 ft 393 kts 140°
2026-05-05 16:44 50.52129 5.38010 23518 ft 396 kts 139°
2026-05-05 16:44 50.50104 5.40964 23952 ft 398 kts 139°
2026-05-05 16:45 50.48084 5.43950 24385 ft 400 kts 138°
2026-05-05 16:45 50.46064 5.46956 24801 ft 401 kts 138°
2026-05-05 16:45 50.44030 5.49976 25207 ft 403 kts 138°
2026-05-05 16:45 50.41987 5.52993 25600 ft 405 kts 138°
2026-05-05 16:46 50.39929 5.56019 25971 ft 407 kts 139°
2026-05-05 16:46 50.37856 5.59057 26338 ft 409 kts 139°
2026-05-05 16:46 50.35777 5.62096 26702 ft 411 kts 139°
2026-05-05 16:46 50.33680 5.65154 27108 ft 413 kts 139°
2026-05-05 16:47 50.31570 5.68221 27495 ft 415 kts 139°
2026-05-05 16:47 50.29456 5.71298 27858 ft 416 kts 138°
2026-05-05 16:47 50.27423 5.74539 28212 ft 419 kts 131°
2026-05-05 16:47 50.25748 5.78273 28567 ft 422 kts 121°
2026-05-05 16:48 50.24500 5.82436 28913 ft 425 kts 111°
2026-05-05 16:48 50.23680 5.86890 29239 ft 428 kts 106°
2026-05-05 16:48 50.22934 5.91399 29560 ft 430 kts 107°
2026-05-05 16:48 50.22174 5.95917 29864 ft 431 kts 107°
2026-05-05 16:49 50.21402 6.00444 30105 ft 433 kts 107°
2026-05-05 16:49 50.20632 6.04930 30331 ft 434 kts 107°
2026-05-05 16:49 50.19847 6.09487 30567 ft 436 kts 107°
2026-05-05 16:49 50.19063 6.14063 30771 ft 437 kts 107°
2026-05-05 16:50 50.18465 6.23305 30829 ft 424 kts 89°
2026-05-05 16:50 50.19047 6.32613 30815 ft 439 kts 88°
2026-05-05 16:51 50.19636 6.42245 30847 ft 451 kts 88°
2026-05-05 16:51 50.20233 6.52047 31069 ft 455 kts 88°
2026-05-05 16:52 50.20534 6.56977 31201 ft 457 kts 88°
2026-05-05 16:52 50.20831 6.61910 31333 ft 458 kts 88°
2026-05-05 16:52 50.21328 6.70211 31559 ft 458 kts 88°
2026-05-05 16:53 50.21621 6.75167 31692 ft 458 kts 88°
2026-05-05 16:53 50.21914 6.80124 31826 ft 459 kts 88°
2026-05-05 16:53 50.22120 6.85074 31959 ft 456 kts 94°
2026-05-05 16:53 50.21941 6.89938 32064 ft 454 kts 98°
2026-05-05 16:54 50.21679 6.94916 32197 ft 454 kts 98°
2026-05-05 16:54 50.21426 6.99766 32326 ft 454 kts 98°
2026-05-05 16:54 50.21165 7.04742 32461 ft 454 kts 98°
2026-05-05 16:54 50.20906 7.09645 32594 ft 453 kts 98°
2026-05-05 16:55 50.20645 7.14546 32728 ft 453 kts 98°
2026-05-05 16:55 50.20381 7.19450 32862 ft 453 kts 99°
2026-05-05 16:55 50.20113 7.24336 32997 ft 452 kts 99°
2026-05-05 16:55 50.19846 7.29159 33137 ft 452 kts 99°
2026-05-05 16:56 50.19358 7.34036 33265 ft 446 kts 107°
2026-05-05 16:56 50.18486 7.38660 33387 ft 444 kts 111°
2026-05-05 16:56 50.17573 7.43185 33524 ft 444 kts 111°
2026-05-05 16:56 50.16648 7.47776 33661 ft 443 kts 111°
2026-05-05 16:57 50.15725 7.52360 33791 ft 443 kts 111°
2026-05-05 16:57 50.14802 7.56945 33917 ft 443 kts 111°
2026-05-05 16:57 50.13879 7.61524 34035 ft 443 kts 111°
2026-05-05 16:57 50.12955 7.66094 34153 ft 442 kts 111°
2026-05-05 16:58 50.12029 7.70665 34268 ft 443 kts 111°
2026-05-05 16:58 50.11099 7.75238 34395 ft 443 kts 111°
2026-05-05 16:58 50.10166 7.79811 34500 ft 443 kts 111°
2026-05-05 16:58 50.09230 7.84388 34627 ft 444 kts 111°
2026-05-05 16:59 50.08291 7.88966 34752 ft 445 kts 111°
2026-05-05 16:59 50.07347 7.93560 34878 ft 445 kts 111°
2026-05-05 16:59 50.06399 7.98151 35005 ft 446 kts 111°
2026-05-05 16:59 50.05447 8.02736 35133 ft 446 kts 112°
2026-05-05 17:00 50.04491 8.07333 35257 ft 446 kts 112°
2026-05-05 17:00 50.03536 8.11932 35385 ft 447 kts 111°
2026-05-05 17:00 50.02580 8.16537 35517 ft 447 kts 111°
2026-05-05 17:00 50.01623 8.21135 35639 ft 447 kts 112°
2026-05-05 17:01 50.00662 8.25732 35751 ft 447 kts 112°
2026-05-05 17:01 49.99699 8.30335 35881 ft 448 kts 112°
2026-05-05 17:01 49.98735 8.34936 36002 ft 448 kts 112°
2026-05-05 17:01 49.97767 8.39536 36134 ft 448 kts 112°
2026-05-05 17:02 49.96795 8.44133 36242 ft 448 kts 112°
2026-05-05 17:02 49.95820 8.48735 36370 ft 449 kts 112°
2026-05-05 17:02 49.94705 8.53237 36506 ft 445 kts 120°
2026-05-05 17:02 49.93234 8.57439 36635 ft 442 kts 123°
2026-05-05 17:03 49.91710 8.61586 36791 ft 442 kts 123°
2026-05-05 17:03 49.90180 8.65737 36836 ft 444 kts 123°
2026-05-05 17:03 49.87088 8.74095 36826 ft 449 kts 123°
2026-05-05 17:04 49.83963 8.82527 36832 ft 453 kts 123°
2026-05-05 17:04 49.80818 8.90987 36829 ft 453 kts 123°
2026-05-05 17:05 49.77654 8.99431 36831 ft 454 kts 123°
2026-05-05 17:05 49.74486 9.07888 36841 ft 454 kts 123°
2026-05-05 17:06 49.71315 9.16336 36860 ft 454 kts 123°
2026-05-05 17:06 49.68141 9.24770 36850 ft 454 kts 123°
2026-05-05 17:07 49.64970 9.33166 36849 ft 454 kts 123°
2026-05-05 17:07 49.61707 9.41501 36841 ft 452 kts 129°
2026-05-05 17:08 49.57646 9.48828 36833 ft 449 kts 134°
2026-05-05 17:08 49.53513 9.56057 36841 ft 450 kts 134°
2026-05-05 17:09 49.49372 9.63298 36847 ft 450 kts 134°
2026-05-05 17:09 49.45231 9.70529 36848 ft 451 kts 134°
2026-05-05 17:10 49.41105 9.77708 36860 ft 451 kts 134°
2026-05-05 17:10 49.36949 9.84921 36833 ft 451 kts 135°
2026-05-05 17:11 49.32782 9.92122 36839 ft 451 kts 135°
2026-05-05 17:11 49.28605 9.99305 36840 ft 448 kts 135°
2026-05-05 17:12 49.24537 10.06283 36338 ft 434 kts 135°
2026-05-05 17:12 49.22531 10.09713 35952 ft 431 kts 135°
2026-05-05 17:12 49.20533 10.13126 35578 ft 430 kts 135°
2026-05-05 17:13 49.18547 10.16518 35217 ft 428 kts 135°
2026-05-05 17:13 49.16560 10.19912 34847 ft 427 kts 134°
2026-05-05 17:13 49.14582 10.23290 34459 ft 426 kts 135°
2026-05-05 17:13 49.12593 10.26645 34104 ft 426 kts 135°
2026-05-05 17:14 49.10575 10.29948 33745 ft 425 kts 136°
2026-05-05 17:14 49.08540 10.33209 33334 ft 423 kts 136°
2026-05-05 17:14 49.06507 10.36435 32935 ft 421 kts 136°
2026-05-05 17:14 49.04484 10.39637 32548 ft 419 kts 137°
2026-05-05 17:15 49.02464 10.42842 32142 ft 418 kts 137°
2026-05-05 17:15 49.00461 10.46034 31760 ft 416 kts 136°
2026-05-05 17:15 48.98475 10.49209 31377 ft 413 kts 136°
2026-05-05 17:15 48.96502 10.52360 30997 ft 409 kts 136°
2026-05-05 17:16 48.94542 10.55484 30621 ft 406 kts 136°
2026-05-05 17:16 48.92597 10.58577 30226 ft 403 kts 136°
2026-05-05 17:16 48.90669 10.61641 29856 ft 399 kts 136°
2026-05-05 17:16 48.88756 10.64684 29425 ft 396 kts 136°
2026-05-05 17:17 48.86861 10.67696 28920 ft 392 kts 136°
2026-05-05 17:17 48.84985 10.70673 28343 ft 389 kts 136°
2026-05-05 17:17 48.83118 10.73624 27764 ft 386 kts 136°
2026-05-05 17:17 48.81261 10.76549 27198 ft 383 kts 137°
2026-05-05 17:18 48.79414 10.79452 26659 ft 381 kts 137°
2026-05-05 17:18 48.77574 10.82340 26104 ft 380 kts 137°
2026-05-05 17:18 48.75739 10.85216 25569 ft 378 kts 137°
2026-05-05 17:18 48.73913 10.88071 25059 ft 377 kts 137°
2026-05-05 17:19 48.72045 10.90845 24619 ft 375 kts 140°
2026-05-05 17:19 48.70136 10.93504 24150 ft 372 kts 141°
2026-05-05 17:19 48.68211 10.96099 23655 ft 370 kts 141°
2026-05-05 17:19 48.66298 10.98680 23148 ft 368 kts 141°
2026-05-05 17:20 48.64406 11.01267 22612 ft 366 kts 141°
2026-05-05 17:20 48.62560 11.03817 22110 ft 363 kts 141°
2026-05-05 17:20 48.60704 11.06393 21612 ft 361 kts 140°
2026-05-05 17:20 48.58861 11.08955 21127 ft 359 kts 140°
2026-05-05 17:21 48.57028 11.11501 20652 ft 357 kts 140°
2026-05-05 17:21 48.55202 11.14031 20184 ft 355 kts 140°
2026-05-05 17:21 48.53389 11.16538 19716 ft 353 kts 141°
2026-05-05 17:22 48.49775 11.21527 18808 ft 350 kts 141°
2026-05-05 17:22 48.47984 11.24001 18368 ft 349 kts 141°
2026-05-05 17:22 48.46199 11.26465 17913 ft 347 kts 141°
2026-05-05 17:22 48.44493 11.29031 17434 ft 348 kts 132°
2026-05-05 17:23 48.43164 11.32076 16992 ft 349 kts 119°
2026-05-05 17:23 48.42306 11.35502 16557 ft 351 kts 107°
2026-05-05 17:23 48.41966 11.39150 16118 ft 354 kts 93°
2026-05-05 17:23 48.42145 11.42842 15691 ft 355 kts 85°
2026-05-05 17:24 48.42451 11.46526 15266 ft 354 kts 85°
2026-05-05 17:24 48.42748 11.50190 14859 ft 352 kts 85°
2026-05-05 17:24 48.43041 11.53847 14450 ft 351 kts 85°
2026-05-05 17:24 48.43326 11.57488 14049 ft 349 kts 85°
2026-05-05 17:25 48.43607 11.61112 13657 ft 348 kts 85°
2026-05-05 17:25 48.43794 11.63506 13369 ft 347 kts 85°
2026-05-05 17:25 48.44167 11.68317 12770 ft 345 kts 85°
2026-05-05 17:25 48.44442 11.71892 12346 ft 342 kts 85°
2026-05-05 17:26 48.44715 11.75429 11941 ft 339 kts 85°
2026-05-05 17:26 48.44985 11.78944 11538 ft 337 kts 85°
2026-05-05 17:26 48.45254 11.82435 11127 ft 334 kts 85°
2026-05-05 17:26 48.45519 11.85899 10718 ft 332 kts 85°
2026-05-05 17:27 48.45781 11.89348 10314 ft 330 kts 85°
2026-05-05 17:27 48.46039 11.92746 10074 ft 323 kts 85°
2026-05-05 17:27 48.46289 11.96065 9831 ft 316 kts 86°
2026-05-05 17:27 48.46534 11.99315 9579 ft 309 kts 86°
2026-05-05 17:28 48.46772 12.02506 9178 ft 303 kts 86°
2026-05-05 17:28 48.47004 12.05651 8622 ft 300 kts 86°
2026-05-05 17:28 48.47230 12.08731 8113 ft 292 kts 86°
2026-05-05 17:28 48.47450 12.11717 7615 ft 285 kts 86°
2026-05-05 17:29 48.47666 12.14647 7119 ft 277 kts 85°
2026-05-05 17:29 48.47862 12.17495 6624 ft 269 kts 90°
2026-05-05 17:29 48.47531 12.20181 6142 ft 260 kts 120°
2026-05-05 17:29 48.46416 12.22148 5845 ft 245 kts 150°
2026-05-05 17:30 48.44860 12.23027 5604 ft 239 kts 171°
2026-05-05 17:30 48.43222 12.23441 5352 ft 238 kts 174°
2026-05-05 17:30 48.41597 12.23359 5096 ft 232 kts 203°
2026-05-05 17:30 48.40282 12.22052 4993 ft 228 kts 229°
2026-05-05 17:31 48.39252 12.20217 4994 ft 230 kts 234°
2026-05-05 17:31 48.38267 12.18306 5000 ft 232 kts 234°
2026-05-05 17:31 48.37336 12.16338 4988 ft 231 kts 244°
2026-05-05 17:31 48.36933 12.14044 5011 ft 225 kts 265°
2026-05-05 17:32 48.36820 12.11803 5059 ft 206 kts 268°
2026-05-05 17:32 48.36699 12.09709 5053 ft 197 kts 264°
2026-05-05 17:32 48.36540 12.07685 4976 ft 194 kts 265°
2026-05-05 17:32 48.36373 12.05686 4754 ft 193 kts 264°
2026-05-05 17:33 48.36210 12.03674 4506 ft 194 kts 265°
2026-05-05 17:33 48.36060 12.01651 4252 ft 194 kts 266°
2026-05-05 17:33 48.35919 11.99646 4031 ft 192 kts 266°
2026-05-05 17:33 48.35790 11.97651 3796 ft 191 kts 267°
2026-05-05 17:34 48.35646 11.95687 3613 ft 185 kts 265°
2026-05-05 17:34 48.35492 11.93800 3362 ft 180 kts 265°
2026-05-05 17:34 48.35343 11.91935 3040 ft 180 kts 266°
2026-05-05 17:34 48.35206 11.90105 2744 ft 170 kts 267°
2026-05-05 17:35 48.35081 11.88431 2538 ft 154 kts 266°
2026-05-05 17:35 48.34965 11.86884 2293 ft 145 kts 267°
2026-05-05 17:35 48.34853 11.85367 2138 ft 150 kts 266°
2026-05-05 17:35 48.34742 11.83792 1979 ft 152 kts 265°
2026-05-05 17:36 48.34616 11.82215 1782 ft 151 kts 264°
2026-05-05 17:36 48.34491 11.80664 1557 ft 147 kts 266°
2026-05-05 17:36 48.34389 11.79223 1486 ft 123 kts 264°
2026-05-05 17:36 48.34323 11.78359 1480 ft 52 kts 263°
2026-05-05 17:37 48.34313 11.78047 1485 ft 22 kts 279°
2026-05-05 17:37 48.34344 11.77900 1482 ft 23 kts 293°
2026-05-05 17:37 48.34418 11.77637 1481 ft 15 kts 293°
2026-05-05 17:37 48.34456 11.77508 1476 ft 14 kts 295°
2026-05-05 17:38 48.34539 11.77433 1485 ft 16 kts 355°
2026-05-05 17:38 48.34629 11.77480 1482 ft 16 kts 72°
2026-05-05 17:38 48.34644 11.77646 1483 ft 16 kts 83°
2026-05-05 17:38 48.34657 11.77815 1482 ft 16 kts 83°
2026-05-05 17:39 48.34671 11.77988 1485 ft 17 kts 83°
2026-05-05 17:39 48.34685 11.78169 1476 ft 18 kts 83°
2026-05-05 17:39 48.34700 11.78362 1477 ft 19 kts 83°
2026-05-05 17:39 48.34715 11.78572 1485 ft 21 kts 84°
2026-05-05 17:40 48.34733 11.78800 1485 ft 23 kts 83°
2026-05-05 17:40 48.34743 11.78924 1485 ft 7 kts 84°
2026-05-05 17:40 48.34751 11.79028 1485 ft 17 kts 83°
2026-05-05 17:40 48.34764 11.79210 1485 ft 18 kts 83°
2026-05-05 17:41 48.34780 11.79406 1485 ft 18 kts 84°
2026-05-05 17:41 48.34804 11.79544 1476 ft 11 kts 46°
2026-05-05 17:41 48.34879 11.79554 1480 ft 12 kts 353°
2026-05-05 17:41 48.34957 11.79541 1485 ft 6 kts 353°
2026-05-05 17:42 48.35002 11.79532 1481 ft 7 kts 351°
2026-05-05 17:42 48.35031 11.79527 1479 ft 3 kts 355°
2026-05-05 17:42 48.35040 11.79526 1483 ft 0 kts 355°
2026-05-05 17:44 48.35054 11.79523 1483 ft 6 kts 354°
2026-05-05 17:44 48.35107 11.79498 1478 ft 8 kts 293°
2026-05-05 17:44 48.35102 11.79406 1485 ft 10 kts 263°
2026-05-05 17:45 48.35099 11.79368 1485 ft 0 kts 263°